Retour au catalogue

ONEWEB-0672

ActifCommunicationsPO
NORAD 55831·PAYLOAD·🇬🇧 United Kingdom

Lancé Mar 9, 2023 depuis Cape Canaveral Space Force Station

Loading…

Prochains Passages (prochaines 24 heures)

TLE

FraisSource: CelesTrak SupGP

Époque: Sep 14, 2026, 12:14 UTC

1 55831C 23029AM  26257.50986528 -.00000340  00000+0 -83725-3 0  2576
2 55831  87.9137 256.6164 0001929  97.3842  14.6753 13.20770639    18

Suivez ONEWEB-0672 en temps réel avec AllMySat

Download on the App Store